Accueil
METAR-TAF:

METAR-TAF

Aéroports :

Fairford, Angleterre

latitude: 51-41N, longitude: 001-47W, altitude: 87 m

Observation

Le bulletin a été fait il y a 35 minutes, à 01:58 UTC
Vent 4 kt de sud-est
Température 8°C
Humidité 93%
Pression 998 hPa
Visibilité 10 km ou plus
Quelques nuages à une hauteur de 7000 ft
Nuages épars à une hauteur de 9500 ft

METAR: EGVA 010158Z AUTO 13004KT 9999 FEW070 SCT095 08/07 A2947 RMK AO2 SLP983 T00820069 $

Heure: 03:33 (02:33 UTC)


TAF: absent

Observations et prévisions météorologiques de plus de 4000 aéroports (messages METAR et TAF).

Les stations disponibles sont représentées par des disques jaunes et rouges sur la carte.

Passer la souris dessus pour voir le nom de la station.

Cliquer dessus pour voir les observations et prévisions météorologiques.

Pour changer de carte: cliquez sur les boutons verts avec une croix noire pour zoomer, sur le bouton vert avec un tiret pour effectuer un zoom arrière, ou sur les flèches vertes pour les cartes adjacentes.


METAR-TAF: